DateTimeUTC,F1_A11,F1_S11,BsB_S11,BsG_S11,BsR_S11,BbsB_S11,BbsG_S11,BbsR_S11,BaB_A11,BaG_A11,BaR_A11,Tu_S11,T_S11,Uu_S11,U_S11,P_S11,T1_A11
2021-04-21T19:00:00Z,00000200,21000000,,,,,,,0000.29,-000.29,0000.19,17.4,24.9,,00.0,0662.2,31.1
2021-04-21T19:01:00Z,00000200,21000000,,,,,,,-000.33,0000.04,0000.10,17.4,24.9,,00.0,0662.2,31.1
2021-04-21T19:02:00Z,00000200,21000000,,,,,,,0000.02,0000.35,-000.04,17.4,24.9,,00.0,0662.2,31.1
2021-04-21T19:03:00Z,00000200,61000000,,,,,,,0000.98,0000.29,0000.40,17.4,24.9,,00.0,0662.2,31.1
2021-04-21T19:04:00Z,00000200,41000000,0002.45,0001.65,0000.99,0000.60,0000.41,0000.23,0000.53,0000.74,0000.79,17.5,24.7,,00.0,0663.2,31.1
2021-04-21T19:05:00Z,00000200,01000000,0001.64,0001.43,0000.96,0000.37,0000.27,0000.14,0000.99,0000.71,0000.33,17.6,24.7,,00.0,0663.3,31.1
2021-04-21T19:06:00Z,00000200,01000000,0002.51,0001.28,0000.93,0000.16,0000.33,0000.30,0000.56,0001.09,0000.72,17.6,24.6,,00.0,0663.3,31.1
2021-04-21T19:07:00Z,00000200,01000000,0003.02,0001.30,0000.95,0000.38,0000.23,0000.28,0000.91,0000.63,0000.70,17.6,24.6,,00.0,0663.3,31.1
2021-04-21T19:08:00Z,00000200,01000000,0002.29,0001.05,0000.82,0000.25,0000.17,0000.34,0000.86,0000.54,0000.52,17.5,24.6,,00.0,0663.3,31.1
2021-04-21T19:09:00Z,00000200,01000000,0002.22,0001.31,0001.01,0000.44,0000.26,0000.23,0000.86,0000.74,0000.21,17.6,24.6,,00.0,0663.3,31.1
2021-04-21T19:10:00Z,00000200,01000000,0002.82,0001.63,0000.97,-000.29,0000.26,0000.34,0000.74,0000.82,0000.89,17.6,24.6,,00.0,0663.3,31.1
2021-04-21T19:11:00Z,00000200,01000000,0002.78,0001.52,0001.02,0000.22,0000.28,0000.36,0001.06,0000.60,0000.46,17.6,24.6,,00.0,0663.3,31.1
2021-04-21T19:12:00Z,00000200,01000000,0002.92,0001.93,0001.45,0000.18,0000.46,0000.19,0001.04,0000.95,0000.91,17.6,24.6,,00.0,0663.3,31.1
2021-04-21T19:13:00Z,00000200,01000000,0002.96,0002.11,0001.35,0000.34,0000.45,0000.38,0000.86,0000.99,0000.73,17.5,24.6,,00.0,0663.3,31.1
2021-04-21T19:14:00Z,00000200,01000000,0004.23,0002.16,0001.27,0000.11,0000.43,0000.42,0001.08,0001.09,0000.48,17.6,24.6,,00.0,0663.2,31.1
2021-04-21T19:15:00Z,00000200,01000000,0003.19,0002.21,0001.61,0000.26,0000.46,0000.46,0001.10,0001.10,0000.95,17.6,24.6,,00.0,0663.3,31.1
2021-04-21T19:16:00Z,00000200,01000000,0002.91,0002.24,0001.68,0000.60,0000.48,0000.65,0001.07,0000.78,0000.76,17.5,24.6,,00.0,0663.3,31.1
2021-04-21T19:17:00Z,00000200,01000000,0002.80,0001.89,0001.57,0000.26,0000.27,0000.43,0001.07,0000.94,0000.88,17.6,24.6,,00.0,0663.2,31.1
2021-04-21T19:18:00Z,00000200,01000000,0002.69,0001.45,0001.13,-000.10,0000.30,0000.17,0001.24,0001.06,0000.32,17.5,24.6,,00.0,0663.3,31.1
2021-04-21T19:19:00Z,00000200,01000000,0002.54,0001.72,0001.20,0000.29,0000.28,0000.24,0000.68,0000.68,0000.49,17.6,24.6,,00.0,0663.3,31.1
2021-04-21T19:20:00Z,00000200,01000000,0002.20,0001.96,0001.06,0000.01,0000.19,0000.15,0000.72,0000.63,0000.99,17.6,24.6,,00.0,0663.3,31.1
2021-04-21T19:21:00Z,00000200,01000000,0002.73,0001.75,0001.04,0000.30,0000.29,0000.40,0000.79,0000.54,0000.04,17.6,24.6,,00.0,0663.3,31.1
2021-04-21T19:22:00Z,00000200,01000000,0002.55,0001.25,0001.05,0000.37,0000.19,0000.19,0001.00,0001.04,0000.58,17.6,24.6,,00.0,0663.3,31.1
2021-04-21T19:23:00Z,00000200,01000000,0002.44,0001.32,0000.93,-000.38,0000.19,0000.31,0000.74,0000.91,0000.97,17.7,24.6,,00.0,0663.3,31.1
2021-04-21T19:24:00Z,00000200,01000000,0002.36,0001.51,0000.81,-000.26,0000.33,0000.10,0000.46,0000.29,0000.25,17.7,24.6,,00.0,0663.3,31.1
2021-04-21T19:25:00Z,00000200,01000000,0001.90,0001.44,0000.80,-000.05,0000.28,0000.16,0000.58,0000.65,0000.32,17.7,24.6,,00.0,0663.3,31.1
2021-04-21T19:26:00Z,00000200,01000000,0002.76,0001.45,0000.86,-000.00,0000.05,0000.34,0000.78,0000.54,0000.67,17.7,24.6,,00.0,0663.3,31.1
2021-04-21T19:27:00Z,00000200,01000000,0002.33,0001.68,0001.17,0000.50,0000.49,0000.26,0000.87,0001.02,0000.59,17.7,24.6,,00.0,0663.3,31.1
2021-04-21T19:28:00Z,00000200,01000000,0002.52,0001.62,0001.00,0000.08,0000.31,0000.15,0000.64,0000.46,0000.57,17.7,24.6,,00.0,0663.3,31.1
2021-04-21T19:29:00Z,00000200,01000000,0002.55,0001.35,0000.84,-000.02,0000.19,0000.20,0000.64,0000.63,0000.35,17.7,24.6,,00.0,0663.3,31.1
2021-04-21T19:30:00Z,00000200,01000000,0002.37,0001.22,0000.93,0000.33,0000.10,0000.31,0000.66,0000.64,0000.52,17.7,24.6,,00.0,0663.3,31.1
2021-04-21T19:31:00Z,00000200,01000000,0002.51,0001.41,0000.83,0000.16,0000.14,0000.30,0000.94,0000.70,0000.53,17.7,24.6,,00.0,0663.3,31.1
2021-04-21T19:32:00Z,00000200,01000000,0002.15,0001.34,0001.07,0000.54,0000.41,0000.44,0000.74,0000.62,0000.40,17.6,24.6,,00.0,0663.3,31.1
2021-04-21T19:33:00Z,00000200,01000000,0002.71,0001.59,0001.05,0000.69,0000.39,0000.30,0000.44,0000.96,0000.71,17.7,24.6,,00.0,0663.3,31.1
2021-04-21T19:34:00Z,00000200,01000000,0002.79,0001.42,0001.01,0000.22,0000.28,0000.33,0001.73,0000.63,0000.57,17.6,24.6,,00.0,0663.3,31.1
2021-04-21T19:35:00Z,00000200,01000000,0002.86,0001.14,0000.95,0000.00,0000.26,0000.31,0000.22,0000.93,0000.61,17.6,24.6,,00.0,0663.3,31.1
2021-04-21T19:36:00Z,00000200,01000000,0002.62,0001.27,0001.04,-000.05,0000.25,0000.45,0001.15,0000.78,0000.64,17.6,24.6,,00.0,0663.3,31.1
2021-04-21T19:37:00Z,00000200,01000000,0002.08,0001.32,0000.84,0000.19,0000.33,-000.14,0000.79,0000.54,0000.43,17.6,24.6,,00.0,0663.3,31.1
2021-04-21T19:38:00Z,00000200,01000000,0002.71,0001.35,0000.81,0000.45,0000.32,0000.31,0000.67,0000.85,0000.49,17.6,24.6,,00.0,0663.3,31.1
2021-04-21T19:39:00Z,00000200,01000000,0002.50,0001.42,0000.77,0000.44,0000.37,0000.31,0000.76,0000.50,0000.42,17.6,24.6,,00.0,0663.3,31.1
2021-04-21T19:40:00Z,00000200,01000000,0002.49,0001.24,0000.91,-000.28,0000.41,0000.49,0001.03,0001.25,0000.80,17.6,24.6,,00.0,0663.3,31.1
2021-04-21T19:41:00Z,00000200,01000000,0002.45,0001.58,0000.86,0000.29,0000.28,-000.04,0000.75,0000.74,0000.67,17.6,24.6,,00.0,0663.3,31.1
2021-04-21T19:42:00Z,00000200,01000000,0002.07,0001.30,0000.91,0000.27,0000.22,0000.12,0000.68,0000.84,0000.57,17.6,24.6,,00.0,0663.3,31.1
2021-04-21T19:43:00Z,00000200,01000000,0002.28,0001.43,0001.06,-000.04,0000.06,0000.52,0000.95,0000.25,0000.21,17.6,24.6,,00.0,0663.3,31.1
2021-04-21T19:44:00Z,00000200,01000000,0002.10,0001.45,0000.77,-000.19,0000.45,-000.06,0000.64,0001.02,0000.92,17.6,24.6,,00.0,0663.3,31.1
2021-04-21T19:45:00Z,00000200,01000000,0002.13,0001.14,0000.75,0000.61,0000.38,0000.30,0000.96,0000.57,0000.32,17.6,24.6,,00.0,0663.3,31.1
2021-04-21T19:46:00Z,00000200,01000000,0002.18,0001.49,0000.66,0000.25,0000.30,0000.14,0000.60,0000.69,0000.25,17.6,24.6,,00.0,0663.3,31.1
2021-04-21T19:47:00Z,00000200,01000000,0002.08,0001.42,0000.86,0000.37,0000.22,0000.28,0000.92,0000.78,0000.69,17.6,24.6,,00.0,0663.3,31.1
2021-04-21T19:48:00Z,00000200,01000000,0002.20,0001.51,0000.74,0000.58,0000.30,0000.23,0000.60,0000.45,0000.81,17.6,24.6,,00.0,0663.3,31.1
2021-04-21T19:49:00Z,00000200,01000000,0001.80,0001.40,0000.95,0000.00,0000.18,0000.05,0001.00,0000.67,0000.41,17.6,24.6,,00.0,0663.3,31.1
2021-04-21T19:50:00Z,00000200,01000000,0002.37,0001.31,0000.93,0000.26,0000.10,0000.14,0000.59,0000.69,0000.56,17.6,24.6,,00.0,0663.3,31.1
2021-04-21T19:51:00Z,00000200,01000000,0002.62,0001.03,0001.16,0000.22,-000.00,0000.33,0000.84,0000.65,0000.21,17.6,24.6,,00.0,0663.3,31.1
2021-04-21T19:52:00Z,00000200,01000000,0002.70,0001.39,0001.29,0000.13,0000.24,0000.58,0001.06,0000.83,0000.74,17.6,24.6,,00.0,0663.4,31.1
2021-04-21T19:53:00Z,00000200,01000000,0001.57,0001.37,0001.04,0000.50,0000.22,0000.15,0000.34,0000.78,0000.41,17.6,24.6,,00.0,0663.4,31.1
2021-04-21T19:54:00Z,00000200,01000000,0001.53,0001.41,0000.87,0000.49,0000.17,0000.34,0000.80,0000.43,0000.61,17.6,24.6,,00.0,0663.4,31.1
2021-04-21T19:55:00Z,00000200,01000000,0001.73,0001.59,0001.05,-000.22,0000.38,0000.28,0000.95,0000.76,0000.35,17.5,24.5,,00.0,0663.4,31.1
2021-04-21T19:56:00Z,00000200,01000000,0002.67,0001.34,0001.44,0000.60,0000.33,0000.50,0000.96,0001.11,0000.81,17.5,24.6,,00.0,0663.4,31.1
2021-04-21T19:57:00Z,00000200,41000000,,,,,,,0000.86,0000.55,0000.27,17.6,24.6,,00.0,0663.4,31.1
2021-04-21T19:58:00Z,00000200,61000000,,,,,,,-000.25,-000.23,0000.23,17.3,24.7,,00.0,0662.4,31.1
2021-04-21T19:59:00Z,00000200,21000000,,,,,,,-000.25,0000.07,-000.06,17.3,24.8,,00.0,0662.4,31.1
